TIME,�����g�[�mL�n,�t���O,�����g�[�mMJ�n,�t���O
2004/2/1 0:00,0.0062526,0,0.91788168,0
2004/2/1 0:15,0.006658712,0,0.977498995,0
2004/2/1 0:30,0.008237188,0,1.209219125,0
2004/2/1 0:45,0.008427218,0,1.237115529,0
2004/2/1 1:00,0.01006546,0,1.477609528,0
2004/2/1 1:15,0.008555947,0,1.256013093,0
2004/2/1 1:30,0.00924404,0,1.357025072,0
2004/2/1 1:45,0.010080785,0,1.479859238,0
2004/2/1 2:00,0.0103597,0,1.52080396,0
2004/2/1 2:15,0.009860105,0,1.447463414,0
2004/2/1 2:30,0.010486897,0,1.539476553,0
2004/2/1 2:45,0.01072137,0,1.573897116,0
2004/2/1 3:00,0.012442367,0,1.826539549,0
2004/2/1 3:15,0.010099175,0,1.48255889,0
2004/2/1 3:30,0.01508593,0,2.214614524,0
2004/2/1 3:45,0.017429123,0,2.558595183,0
2004/2/1 4:00,0.014103597,0,2.070408113,0
2004/2/1 4:15,0.01660617,0,2.437785756,0
2004/2/1 4:30,0.016181668,0,2.375468789,0
2004/2/1 4:45,0.016227642,0,2.382217919,0
2004/2/1 5:00,0,0,0,0
2004/2/1 5:15,0,0,0,0
2004/2/1 5:30,0,0,0,0
2004/2/1 5:45,0,0,0,0
2004/2/1 6:00,0,0,0,0
2004/2/1 6:15,0,0,0,0
2004/2/1 6:30,0,0,0,0
2004/2/1 6:45,0,0,0,0
2004/2/1 7:00,0,0,0,0
2004/2/1 7:15,0,0,0,0
2004/2/1 7:30,0,0,0,0
2004/2/1 7:45,0,0,0,0
2004/2/1 8:00,0,0,0,0
2004/2/1 8:15,0,0,0,0
2004/2/1 8:30,0,0,0,0
2004/2/1 8:45,0,0,0,0
2004/2/1 9:00,0,0,0,0
2004/2/1 9:15,0,0,0,0
2004/2/1 9:30,0,0,0,0
2004/2/1 9:45,0,0,0,0
2004/2/1 10:00,0,0,0,0
2004/2/1 10:15,0,0,0,0
2004/2/1 10:30,0,0,0,0
2004/2/1 10:45,0,0,0,0
2004/2/1 11:00,0,0,0,0
2004/2/1 11:15,0,0,0,0
2004/2/1 11:30,0.006557568,0,0.962650909,0
2004/2/1 11:45,0.026639447,0,3.910670892,0
2004/2/1 12:00,0.02293846,0,3.367365928,0
2004/2/1 12:15,0.016423802,0,2.411014207,0
2004/2/1 12:30,0.013561093,0,1.990768379,0
2004/2/1 12:45,0.010149748,0,1.489982933,0
2004/2/1 13:00,0.021134707,0,3.102575061,0
2004/2/1 13:15,0.013322023,0,1.955672903,0
2004/2/1 13:30,0.006543775,0,0.96062617,0
2004/2/1 13:45,0.006182105,0,0.907533014,0
2004/2/1 14:00,0.006617335,0,0.971424778,0
2004/2/1 14:15,0.007483197,0,1.098533393,0
2004/2/1 14:30,0.00600127,0,0.880986436,0
2004/2/1 14:45,0,0,0,0
2004/2/1 15:00,0,0,0,0
2004/2/1 15:15,0,0,0,0
2004/2/1 15:30,0,0,0,0
2004/2/1 15:45,0,0,0,0
2004/2/1 16:00,0,0,0,0
2004/2/1 16:15,0,0,0,0
2004/2/1 16:30,0,0,0,0
2004/2/1 16:45,0,0,0,0
2004/2/1 17:00,0,0,0,0
2004/2/1 17:15,0,0,0,0
2004/2/1 17:30,0.009423343,0,1.383346679,0
2004/2/1 17:45,0.025201962,0,3.699648094,0
2004/2/1 18:00,0.02051098,0,3.011011864,0
2004/2/1 18:15,0.018704162,0,2.745771055,0
2004/2/1 18:30,0.01555794,0,2.283905592,0
2004/2/1 18:45,0.011145872,0,1.636214083,0
2004/2/1 19:00,0.010914465,0,1.602243462,0
2004/2/1 19:15,0.012558837,0,1.843637345,0
2004/2/1 19:30,0.008981983,0,1.318555031,0
2004/2/1 19:45,0.008640235,0,1.268386498,0
2004/2/1 20:00,0.009542878,0,1.400894417,0
2004/2/1 20:15,0.008873175,0,1.30258209,0
2004/2/1 20:30,0.007199685,0,1.056913758,0
2004/2/1 20:45,0.006697025,0,0.98312327,0
2004/2/1 21:00,0.007775905,0,1.141502854,0
2004/2/1 21:15,0.00719662,0,1.056463816,0
2004/2/1 21:30,0.008132978,0,1.193921097,0
2004/2/1 21:45,0.007199685,0,1.056913758,0
2004/2/1 22:00,0.008382775,0,1.23059137,0
2004/2/1 22:15,0.007351403,0,1.079185887,0
2004/2/1 22:30,0.008080873,0,1.186272083,0
2004/2/1 22:45,0.008142172,0,1.195270923,0
2004/2/1 23:00,0.00830002,0,1.218442936,0
2004/2/1 23:15,0.00703111,0,1.032166948,0
2004/2/1 23:30,0.007792763,0,1.143977535,0
2004/2/1 23:45,0.00672461,0,0.987172748,0
2004/2/2 0:00,0.008298488,0,1.218217965,0
2004/2/2 0:15,0.007064825,0,1.03711631,0
2004/2/2 0:30,0.008505375,0,1.24858905,0
2004/2/2 0:45,0.008847123,0,1.298757583,0
2004/2/2 1:00,0.008094665,0,1.188296822,0
2004/2/2 1:15,0.008776627,0,1.288408917,0
2004/2/2 1:30,0.008094665,0,1.188296822,0
2004/2/2 1:45,0.00704337,0,1.033966716,0
2004/2/2 2:00,0.012960353,0,1.902579747,0
2004/2/2 2:15,0.011619415,0,1.705730122,0
2004/2/2 2:30,0.01227839,0,1.802467652,0
2004/2/2 2:45,0.012089892,0,1.774796219,0
2004/2/2 3:00,0.0103597,0,1.52080396,0
2004/2/2 3:15,0.007316155,0,1.074011554,0
2004/2/2 3:30,0.009821792,0,1.441839139,0
2004/2/2 3:45,0.007260985,0,1.065912598,0
2004/2/2 4:00,0.009522955,0,1.397969794,0
2004/2/2 4:15,0.010546665,0,1.548250422,0
2004/2/2 4:30,0.007634915,0,1.120805522,0
2004/2/2 4:45,0,0,0,0
2004/2/2 5:00,0,0,0,0
2004/2/2 5:15,0,0,0,0
2004/2/2 5:30,0,0,0,0
2004/2/2 5:45,0,0,0,0
2004/2/2 6:00,0,0,0,0
2004/2/2 6:15,0,0,0,0
2004/2/2 6:30,0,0,0,0
2004/2/2 6:45,0,0,0,0
2004/2/2 7:00,0,0,0,0
2004/2/2 7:15,0.01159183,0,1.701680644,0
2004/2/2 7:30,0.026142917,0,3.837780288,0
2004/2/2 7:45,0.02287103,0,3.357467204,0
2004/2/2 8:00,0.015939533,0,2.339923371,0
2004/2/2 8:15,0.01473039,0,2.162421252,0
2004/2/2 8:30,0.013668368,0,2.006516349,0
2004/2/2 8:45,0.015027695,0,2.206065626,0
2004/2/2 9:00,0.01445454,0,2.121926472,0
2004/2/2 9:15,0.01717626,0,2.521474968,0
2004/2/2 9:30,0.009424875,0,1.38357165,0
2004/2/2 9:45,0.011997943,0,1.761297959,0
2004/2/2 10:00,0.014794755,0,2.171870034,0
2004/2/2 10:15,0.017068985,0,2.505726998,0
2004/2/2 10:30,0.016855967,0,2.474456029,0
2004/2/2 10:45,0.014842262,0,2.178844135,0
2004/2/2 11:00,0.006729208,0,0.987847661,0
2004/2/2 11:15,0.0086433,0,1.26883644,0
2004/2/2 11:30,0.008638702,0,1.268161527,0
2004/2/2 11:45,0.009778883,0,1.435539951,0
2004/2/2 12:00,0.00324277,0,0.476038636,0
2004/2/2 12:15,0,0,0,0
2004/2/2 12:30,0,0,0,0
2004/2/2 12:45,0,0,0,0
2004/2/2 13:00,0.009890755,0,1.451962834,0
2004/2/2 13:15,0.015971715,0,2.344647762,0
2004/2/2 13:30,0.012751932,0,1.871983691,0
2004/2/2 13:45,0.012773387,0,1.875133285,0
2004/2/2 14:00,0.013672965,0,2.007191262,0
2004/2/2 14:15,0.00873525,0,1.2823347,0
2004/2/2 14:30,0.01018806,0,1.495607208,0
2004/2/2 14:45,0.007688553,0,1.128679507,0
2004/2/2 15:00,0.007553693,0,1.108882059,0
2004/2/2 15:15,0.007481665,0,1.098308422,0
2004/2/2 15:30,0.008632573,0,1.267261643,0
2004/2/2 15:45,0.002753903,0,0.404272887,0
2004/2/2 16:00,0,0,0,0
2004/2/2 16:15,0,0,0,0
2004/2/2 16:30,0,0,0,0
2004/2/2 16:45,0,0,0,0
2004/2/2 17:00,0,0,0,0
2004/2/2 17:15,0,0,0,0
2004/2/2 17:30,0,0,0,0
2004/2/2 17:45,0,0,0,0
2004/2/2 18:00,0,0,0,0
2004/2/2 18:15,0,0,0,0
2004/2/2 18:30,0.01487751,0,2.184018468,0
2004/2/2 18:45,0.01614642,0,2.370294456,0
2004/2/2 19:00,0.011789522,0,1.730701903,0
2004/2/2 19:15,0.010503755,0,1.541951234,0
2004/2/2 19:30,0.009634827,0,1.414392677,0
2004/2/2 19:45,0.007676292,0,1.126879739,0
2004/2/2 20:00,0.009021827,0,1.324404277,0
2004/2/2 20:15,0.007572083,0,1.111581711,0
2004/2/2 20:30,0.006819625,0,1.00112095,0
2004/2/2 20:45,0.005662587,0,0.831267845,0
2004/2/2 21:00,0.005661055,0,0.831042874,0
2004/2/2 21:15,0.008151368,0,1.196620749,0
2004/2/2 21:30,0.0096241,0,1.41281788,0
2004/2/2 21:45,0.00871686,0,1.279635048,0
2004/2/2 22:00,0.01427677,0,2.095829836,0
2004/2/2 22:15,0.010137488,0,1.488183165,0
2004/2/2 22:30,0.008004247,0,1.175023533,0
2004/2/2 22:45,0.006983602,0,1.025192847,0
2004/2/2 23:00,0.007455612,0,1.094483915,0
2004/2/2 23:15,0.00664492,0,0.975474256,0
2004/2/2 23:30,0.007973597,0,1.170524113,0
2004/2/2 23:45,0.006980537,0,1.024742905,0
2004/2/3 0:00,0.008811875,0,1.29358325,0
2004/2/3 0:15,0.007210412,0,1.058488555,0
2004/2/3 0:30,0.00832454,0,1.222042472,0
2004/2/3 0:45,0.007265582,0,1.066587511,0
2004/2/3 1:00,0.008836395,0,1.297182786,0
2004/2/3 1:15,0.00730083,0,1.071761844,0
2004/2/3 1:30,0.01015128,0,1.490207904,0
2004/2/3 1:45,0.00773606,0,1.135653608,0
2004/2/3 2:00,0.00925017,0,1.357924956,0
2004/2/3 2:15,0.007714605,0,1.132504014,0
2004/2/3 2:30,0,0,0,0
2004/2/3 2:45,0,0,0,0
2004/2/3 3:00,0,0,0,0
2004/2/3 3:15,0,0,0,0
2004/2/3 3:30,0,0,0,0
2004/2/3 3:45,0,0,0,0
2004/2/3 4:00,0,0,0,0
2004/2/3 4:15,0,0,0,0
2004/2/3 4:30,0,0,0,0
2004/2/3 4:45,0,0,0,0
2004/2/3 5:00,0,0,0,0
2004/2/3 5:15,0,0,0,0
2004/2/3 5:30,0,0,0,0
2004/2/3 5:45,0,0,0,0
2004/2/3 6:00,0,0,0,0
2004/2/3 6:15,0,0,0,0
2004/2/3 6:30,0,0,0,0
2004/2/3 6:45,0,0,0,0
2004/2/3 7:00,0,0,0,0
2004/2/3 7:15,0,0,0,0
2004/2/3 7:30,0,0,0,0
2004/2/3 7:45,0,0,0,0
2004/2/3 8:00,0.01245003,0,1.827664404,0
2004/2/3 8:15,0.02663485,0,3.909995978,0
2004/2/3 8:30,0.02644482,0,3.882099575,0
2004/2/3 8:45,0.022152287,0,3.251955805,0
2004/2/3 9:00,0.019784575,0,2.90437561,0
2004/2/3 9:15,0.016840643,0,2.472206319,0
2004/2/3 9:30,0.01420321,0,2.085031228,0
2004/2/3 9:45,0.013630055,0,2.000892074,0
2004/2/3 10:00,0.013938087,0,2.046111245,0
2004/2/3 10:15,0.016216915,0,2.380643122,0
2004/2/3 10:30,0.011515205,0,1.690432094,0
2004/2/3 10:45,0.006868665,0,1.008320022,0
2004/2/3 11:00,0.008865512,0,1.301457235,0
2004/2/3 11:15,0.007081683,0,1.039590991,0
2004/2/3 11:30,0.008621845,0,1.265686846,0
2004/2/3 11:45,0.005734615,0,0.841841482,0
2004/2/3 12:00,0.006318497,0,0.927555433,0
2004/2/3 12:15,0.005665652,0,0.831717787,0
2004/2/3 12:30,0.00566412,0,0.831492816,0
2004/2/3 12:45,0.005661055,0,0.831042874,0
2004/2/3 13:00,0.005680978,0,0.833967497,0
2004/2/3 13:15,0.00565799,0,0.830592932,0
2004/2/3 13:30,0.001897235,0,0.278514098,0
2004/2/3 13:45,0,0,0,0
2004/2/3 14:00,0,0,0,0
2004/2/3 14:15,0,0,0,0
2004/2/3 14:30,0,0,0,0
2004/2/3 14:45,0,0,0,0
2004/2/3 15:00,0,0,0,0
2004/2/3 15:15,0,0,0,0
2004/2/3 15:30,0,0,0,0
2004/2/3 15:45,0,0,0,0
2004/2/3 16:00,0,0,0,0
2004/2/3 16:15,0,0,0,0
2004/2/3 16:30,0,0,0,0
2004/2/3 16:45,0,0,0,0
2004/2/3 17:00,0.000603805,0,0.088638574,0
2004/2/3 17:15,0.025945225,0,3.808759028,0
2004/2/3 17:30,0.021022835,0,3.086152178,0
2004/2/3 17:45,0.01806511,0,2.651958148,0
2004/2/3 18:00,0.01423386,0,2.089530648,0
2004/2/3 18:15,0.012004072,0,1.762197843,0
2004/2/3 18:30,0.013230073,0,1.942174643,0
2004/2/3 18:45,0.012062307,0,1.770746741,0
2004/2/3 19:00,0.01411739,0,2.072432852,0
2004/2/3 19:15,0.009357445,0,1.373672926,0
2004/2/3 19:30,0.00912757,0,1.339927276,0
2004/2/3 19:45,0.00820807,0,1.204944676,0
2004/2/3 20:00,0.010348972,0,1.519229163,0
2004/2/3 20:15,0.020858857,0,3.062080281,0
2004/2/3 20:30,0.020015983,0,2.938346231,0
2004/2/3 20:45,0.018258205,0,2.680304494,0
2004/2/3 21:00,0.017355562,0,2.547796575,0
2004/2/3 21:15,0.009031022,0,1.325754103,0
2004/2/3 21:30,0.007011187,0,1.029242325,0
2004/2/3 21:45,0.008376645,0,1.229691486,0
2004/2/3 22:00,0.014261445,0,2.093580126,0
2004/2/3 22:15,0.013274515,0,1.948698802,0
2004/2/3 22:30,0.007359065,0,1.080310742,0
2004/2/3 22:45,0.006457955,0,0.948027794,0
2004/2/3 23:00,0.006531515,0,0.958826402,0
2004/2/3 23:15,0.009135232,0,1.341052131,0
2004/2/3 23:30,0.00953828,0,1.400219504,0
2004/2/3 23:45,0.009461655,0,1.388970954,0
2004/2/4 0:00,0.011657728,0,1.711354397,0
2004/2/4 0:15,0.013119733,0,1.925976731,0
2004/2/4 0:30,0.01332049,0,1.955447932,0
2004/2/4 0:45,0.008638702,0,1.268161527,0
2004/2/4 1:00,0.008166692,0,1.198870459,0
2004/2/4 1:15,0.010093045,0,1.481659006,0
2004/2/4 1:30,0.0106049,0,1.55679932,0
2004/2/4 1:45,0.00915209,0,1.343526812,0
2004/2/4 2:00,0.01177573,0,1.728677164,0
2004/2/4 2:15,0.00989995,0,1.45331266,0
2004/2/4 2:30,0.011335903,0,1.664110487,0
2004/2/4 2:45,0.00961797,0,1.411917996,0
2004/2/4 3:00,0.010903737,0,1.600668665,0
2004/2/4 3:15,0.009172013,0,1.346451435,0
2004/2/4 3:30,0.015354118,0,2.253984449,0
2004/2/4 3:45,0.012408653,0,1.821590187,0
2004/2/4 4:00,0.012951158,0,1.901229921,0
2004/2/4 4:15,0.012066905,0,1.771421654,0
2004/2/4 4:30,0.010430195,0,1.531152626,0
2004/2/4 4:45,0,0,0,0
2004/2/4 5:00,0,0,0,0
2004/2/4 5:15,0,0,0,0
2004/2/4 5:30,0,0,0,0
2004/2/4 5:45,0,0,0,0
2004/2/4 6:00,0,0,0,0
2004/2/4 6:15,0,0,0,0
2004/2/4 6:30,0,0,0,0
2004/2/4 6:45,0,0,0,0
2004/2/4 7:00,0,0,0,0
2004/2/4 7:15,0,0,0,0
2004/2/4 7:30,0.006732272,0,0.988297603,0
2004/2/4 7:45,0.026642512,0,3.911120834,0
2004/2/4 8:00,0.02663485,0,3.909995978,0
2004/2/4 8:15,0.026633318,0,3.909771011,0
2004/2/4 8:30,0.026630253,0,3.909321068,0
2004/2/4 8:45,0.026369727,0,3.871075997,0
2004/2/4 9:00,0.023568317,0,3.459829009,0
2004/2/4 9:15,0.014692078,0,2.156796977,0
2004/2/4 9:30,0.015237647,0,2.236886653,0
2004/2/4 9:45,0.017668193,0,2.593690659,0
2004/2/4 10:00,0.02133853,0,3.132496204,0
2004/2/4 10:15,0.018491145,0,2.714500086,0
2004/2/4 10:30,0.009634827,0,1.414392677,0
2004/2/4 10:45,0.007070955,0,1.038016194,0
2004/2/4 11:00,0.00900497,0,1.321929596,0
2004/2/4 11:15,0.009228715,0,1.354775362,0
2004/2/4 11:30,0.00887011,0,1.302132148,0
2004/2/4 11:45,0.008143705,0,1.195495894,0
2004/2/4 12:00,0.01078267,0,1.582895956,0
2004/2/4 12:15,0.009270092,0,1.360849579,0
2004/2/4 12:30,0.00928695,0,1.36332426,0
2004/2/4 12:45,0.00810999,0,1.190546532,0
2004/2/4 13:00,0.01037196,0,1.522603728,0
2004/2/4 13:15,0.007857128,0,1.153426317,0
2004/2/4 13:30,0.009467785,0,1.389870838,0
2004/2/4 13:45,0.010014887,0,1.470185485,0
2004/2/4 14:00,0.01865359,0,2.738347012,0
2004/2/4 14:15,0.013182565,0,1.935200542,0
2004/2/4 14:30,0.01457101,0,2.139024268,0
2004/2/4 14:45,0.012442367,0,1.826539549,0
2004/2/4 15:00,0.013101343,0,1.923277079,0
2004/2/4 15:15,0.01226,0,1.799768,0
2004/2/4 15:30,0.01227226,0,1.801567768,0
2004/2/4 15:45,0.014768702,0,2.168045527,0
2004/2/4 16:00,0.015113515,0,2.218664002,0
2004/2/4 16:15,0.013076822,0,1.919677543,0
2004/2/4 16:30,0.01576023,0,2.313601764,0
2004/2/4 16:45,0.013824682,0,2.029463391,0
2004/2/4 17:00,0.017088908,0,2.508651621,0
2004/2/4 17:15,0.01877619,0,2.756344692,0
2004/2/4 17:30,0.016874358,0,2.477155681,0
2004/2/4 17:45,0.017147143,0,2.517200519,0
2004/2/4 18:00,0.017606892,0,2.584691819,0
2004/2/4 18:15,0.015724982,0,2.308427431,0
2004/2/4 18:30,0.015081333,0,2.213939611,0
2004/2/4 18:45,0.014587868,0,2.141498949,0
2004/2/4 19:00,0.014175625,0,2.08098175,0
2004/2/4 19:15,0.019208355,0,2.819786514,0
2004/2/4 19:30,0.01972634,0,2.895826712,0
2004/2/4 19:45,0.01427064,0,2.094929952,0
2004/2/4 20:00,0.016644482,0,2.443410031,0
2004/2/4 20:15,0.013849202,0,2.033062927,0
2004/2/4 20:30,0.010382687,0,1.524178525,0
2004/2/4 20:45,0.016632223,0,2.441610263,0
2004/2/4 21:00,0.019324825,0,2.83688431,0
2004/2/4 21:15,0.014756443,0,2.166245759,0
2004/2/4 21:30,0.009506098,0,1.395495113,0
2004/2/4 21:45,0.013809358,0,2.027213681,0
2004/2/4 22:00,0.021533158,0,3.161067521,0
2004/2/4 22:15,0.019147055,0,2.810787674,0
2004/2/4 22:30,0.015977845,0,2.345547646,0
2004/2/4 22:45,0.016891215,0,2.479630362,0
2004/2/4 23:00,0.015363313,0,2.255334275,0
2004/2/4 23:15,0.005705498,0,0.837567033,0
2004/2/4 23:30,0.008401165,0,1.233291022,0
2004/2/4 23:45,0.01190446,0,1.747574728,0
2004/2/5 0:00,0.023333845,0,3.425408446,0
2004/2/5 0:15,0.014158767,0,2.078507069,0
2004/2/5 0:30,0.010324452,0,1.515629627,0
2004/2/5 0:45,0.01009611,0,1.482108948,0
2004/2/5 1:00,0.01658165,0,2.43418622,0
2004/2/5 1:15,0.004048865,0,0.594373382,0
2004/2/5 1:30,0,0,0,0
2004/2/5 1:45,0,0,0,0
2004/2/5 2:00,0,0,0,0
2004/2/5 2:15,0,0,0,0
2004/2/5 2:30,0,0,0,0
2004/2/5 2:45,0,0,0,0
2004/2/5 3:00,0,0,0,0
2004/2/5 3:15,0,0,0,0
2004/2/5 3:30,0.004300195,0,0.631268626,0
2004/2/5 3:45,0.017763208,0,2.607638861,0
2004/2/5 4:00,0,0,0,0
2004/2/5 4:15,0,0,0,0
2004/2/5 4:30,0,0,0,0
2004/2/5 4:45,0,0,0,0
2004/2/5 5:00,0,0,0,0
2004/2/5 5:15,0,0,0,0
2004/2/5 5:30,0,0,0,0
2004/2/5 5:45,0,0,0,0
2004/2/5 6:00,0,0,0,0
2004/2/5 6:15,0,0,0,0
2004/2/5 6:30,0,0,0,0
2004/2/5 6:45,0,0,0,0
2004/2/5 7:00,0,0,0,0
2004/2/5 7:15,0,0,0,0
2004/2/5 7:30,0.024184383,0,3.550267351,0
2004/2/5 7:45,0.026636382,0,3.91022095,0
2004/2/5 8:00,0.02663485,0,3.909995978,0
2004/2/5 8:15,0.026633318,0,3.909771011,0
2004/2/5 8:30,0.026633318,0,3.909771011,0
2004/2/5 8:45,0.026631785,0,3.90954604,0
2004/2/5 9:00,0.02603411,0,3.821807347,0
2004/2/5 9:15,0.019265057,0,2.828110441,0
2004/2/5 9:30,0.002760032,0,0.405172771,0
2004/2/5 9:45,0,0,0,0
2004/2/5 10:00,0.011608688,0,1.704155325,0
2004/2/5 10:15,0.026639447,0,3.910670892,0
2004/2/5 10:30,0.024760602,0,3.634856446,0
2004/2/5 10:45,0.02295072,0,3.369165696,0
2004/2/5 11:00,0.02095234,0,3.075803512,0
2004/2/5 11:15,0.01259102,0,1.848361736,0
2004/2/5 11:30,0.010315258,0,1.514279801,0
2004/2/5 11:45,0.010007225,0,1.46906063,0
2004/2/5 12:00,0.01321628,0,1.940149904,0
2004/2/5 12:15,0.019899512,0,2.921248435,0
2004/2/5 12:30,0.019612935,0,2.879178858,0
2004/2/5 12:45,0.02049872,0,3.009212096,0
2004/2/5 13:00,0.021680278,0,3.182664737,0
2004/2/5 13:15,0.018780788,0,2.757019605,0
2004/2/5 13:30,0.022216652,0,3.261404587,0
2004/2/5 13:45,0.019798368,0,2.906400349,0
2004/2/5 14:00,0.01967117,0,2.887727756,0
2004/2/5 14:15,0.01958535,0,2.87512938,0
2004/2/5 14:30,0.017567048,0,2.578842573,0
2004/2/5 14:45,0.018311843,0,2.688178479,0
2004/2/5 15:00,0.01522079,0,2.234411972,0
2004/2/5 15:15,0.014109728,0,2.071307997,0
2004/2/5 15:30,0.019038247,0,2.794814733,0
2004/2/5 15:45,0.021787553,0,3.198412707,0
2004/2/5 16:00,0.01956696,0,2.872429728,0
2004/2/5 16:15,0.020362327,0,2.989189677,0
2004/2/5 16:30,0.019810627,0,2.908200117,0
2004/2/5 16:45,0.02215382,0,3.252180776,0
2004/2/5 17:00,0.019402982,0,2.848357831,0
2004/2/5 17:15,0.019865797,0,2.916299073,0
2004/2/5 17:30,0.021263438,0,3.121472625,0
2004/2/5 17:45,0.013311295,0,1.954098106,0
2004/2/5 18:00,0.00979574,0,1.438014632,0
2004/2/5 18:15,0.01049456,0,1.540601408,0
2004/2/5 18:30,0.01425838,0,2.093130184,0
2004/2/5 18:45,0.013576417,0,1.993018089,0
2004/2/5 19:00,0.015069072,0,2.212139843,0
2004/2/5 19:15,0.014734987,0,2.163096165,0
2004/2/5 19:30,0.018253608,0,2.679629581,0
2004/2/5 19:45,0.022365305,0,3.283226774,0
2004/2/5 20:00,0.019942423,0,2.927547623,0
2004/2/5 20:15,0.024996608,0,3.669501982,0
2004/2/5 20:30,0.02256453,0,3.312473004,0
2004/2/5 20:45,0.022299407,0,3.273553021,0
2004/2/5 21:00,0.01482234,0,2.175919512,0
2004/2/5 21:15,0.010480768,0,1.538576669,0
2004/2/5 21:30,0.011651597,0,1.710454513,0
2004/2/5 21:45,0.011237822,0,1.649712343,0
2004/2/5 22:00,0.012342755,0,1.811916434,0
2004/2/5 22:15,0.00739891,0,1.086159988,0
2004/2/5 22:30,0.01449132,0,2.127325776,0
2004/2/5 22:45,0.013631587,0,2.001117045,0
2004/2/5 23:00,0.021119383,0,3.100325351,0
2004/2/5 23:15,0.026492328,0,3.889073678,0
2004/2/5 23:30,0.025468618,0,3.73879305,0
2004/2/5 23:45,0.01867811,0,2.741946548,0
2004/2/6 0:00,0.01318563,0,1.935650484,0
2004/2/6 0:15,0.012761128,0,1.873333517,0
2004/2/6 0:30,0.018393065,0,2.700101942,0
2004/2/6 0:45,0.015603915,0,2.290654722,0
2004/2/6 1:00,0.018094228,0,2.656232597,0
2004/2/6 1:15,0.017144078,0,2.516750577,0
2004/2/6 1:30,0.018737877,0,2.750720417,0
2004/2/6 1:45,0.017162467,0,2.519450229,0
2004/2/6 2:00,0.015516563,0,2.277831375,0
2004/2/6 2:15,0.016903475,0,2.48143013,0
2004/2/6 2:30,0.015015435,0,2.204265858,0
2004/2/6 2:45,0.019044377,0,2.795714617,0
2004/2/6 3:00,0.013334282,0,1.957472671,0
2004/2/6 3:15,0.00722727,0,1.060963236,0
2004/2/6 3:30,0,0,0,0
2004/2/6 3:45,0,0,0,0
2004/2/6 4:00,0,0,0,0
2004/2/6 4:15,0,0,0,0
2004/2/6 4:30,0,0,0,0
2004/2/6 4:45,0,0,0,0
2004/2/6 5:00,0,0,0,0
2004/2/6 5:15,0,0,0,0
2004/2/6 5:30,0,0,0,0
2004/2/6 5:45,0,0,0,0
2004/2/6 6:00,0,0,0,0
2004/2/6 6:15,0,0,0,0
2004/2/6 6:30,0,0,0,0
2004/2/6 6:45,0,0,0,0
2004/2/6 7:00,0,0,0,0
2004/2/6 7:15,0.01393962,0,2.046336216,0
2004/2/6 7:30,0.02664098,0,3.910895863,0
2004/2/6 7:45,0.026636382,0,3.91022095,0
2004/2/6 8:00,0.02663485,0,3.909995978,0
2004/2/6 8:15,0.026633318,0,3.909771011,0
2004/2/6 8:30,0.0264203,0,3.878500039,0
2004/2/6 8:45,0.026507652,0,3.891323387,0
2004/2/6 9:00,0.025388928,0,3.727094558,0
2004/2/6 9:15,0.024012743,0,3.525070599,0
2004/2/6 9:30,0.02240515,0,3.28907602,0
2004/2/6 9:45,0.014428487,0,2.118101965,0
2004/2/6 10:00,0.013947283,0,2.047461071,0
2004/2/6 10:15,0.013695953,0,2.010565827,0
2004/2/6 10:30,0.011294525,0,1.65803627,0
2004/2/6 10:45,0.010391883,0,1.525528351,0
2004/2/6 11:00,0.012414782,0,1.822490071,0
2004/2/6 11:15,0.01169604,0,1.716978672,0
2004/2/6 11:30,0.010799528,0,1.585370637,0
2004/2/6 11:45,0.009496902,0,1.394145287,0
2004/2/6 12:00,0.007719203,0,1.133178927,0
2004/2/6 12:15,0.012122075,0,1.77952061,0
2004/2/6 12:30,0.01064781,0,1.563098508,0
2004/2/6 12:45,0.013568755,0,1.991893234,0
2004/2/6 13:00,0.012727412,0,1.868384155,0
2004/2/6 13:15,0.013893645,0,2.039587086,0
2004/2/6 13:30,0.012733543,0,1.869284039,0
2004/2/6 13:45,0.01358408,0,1.994142944,0
2004/2/6 14:00,0.016463648,0,2.416863453,0
2004/2/6 14:15,0.019537842,0,2.868155279,0
2004/2/6 14:30,0.014008583,0,2.056459911,0
2004/2/6 14:45,0.012040853,0,1.767597147,0
2004/2/6 15:00,0.016486635,0,2.420238018,0
2004/2/6 15:15,0.014549555,0,2.135874674,0
2004/2/6 15:30,0.012598683,0,1.849486591,0
2004/2/6 15:45,0.014030038,0,2.059609505,0
2004/2/6 16:00,0.01199028,0,1.760173104,0
2004/2/6 16:15,0.014361058,0,2.108203241,0
2004/2/6 16:30,0.013017055,0,1.910903674,0
2004/2/6 16:45,0.015271363,0,2.241836015,0
2004/2/6 17:00,0.013073758,0,1.919227601,0
2004/2/6 17:15,0.014949538,0,2.194592105,0
2004/2/6 17:30,0.013070693,0,1.918777659,0
2004/2/6 17:45,0.012332027,0,1.810341637,0
2004/2/6 18:00,0,0,0,0
2004/2/6 18:15,0,0,0,0
2004/2/6 18:30,0,0,0,0
2004/2/6 18:45,0,0,0,0
2004/2/6 19:00,0,0,0,0
2004/2/6 19:15,0,0,0,0
2004/2/6 19:30,0.016862097,0,2.475355913,0
2004/2/6 19:45,0.026221075,0,3.849253808,0
2004/2/6 20:00,0.0259299,0,3.80650932,0
2004/2/6 20:15,0.023897805,0,3.508197774,0
2004/2/6 20:30,0.022995163,0,3.375689855,0
2004/2/6 20:45,0.02046807,0,3.004712676,0
2004/2/6 21:00,0.015303545,0,2.246560406,0
2004/2/6 21:15,0.018655122,0,2.738571983,0
2004/2/6 21:30,0.019085755,0,2.801788834,0
2004/2/6 21:45,0.015363313,0,2.255334275,0
2004/2/6 22:00,0.012869935,0,1.889306458,0
2004/2/6 22:15,0.013493662,0,1.980869655,0
2004/2/6 22:30,0.01234582,0,1.812366376,0
2004/2/6 22:45,0.021428948,0,3.145769493,0
2004/2/6 23:00,0.025178975,0,3.696273529,0
2004/2/6 23:15,0.018731747,0,2.749820533,0
2004/2/6 23:30,0.010963505,0,1.609442534,0
2004/2/6 23:45,0.013213215,0,1.939699962,0
2004/2/7 0:00,0.01249907,0,1.834863476,0
2004/2/7 0:15,0.015556408,0,2.283680621,0
2004/2/7 0:30,0.015960988,0,2.343072965,0
2004/2/7 0:45,0.016958645,0,2.489529086,0
2004/2/7 1:00,0.012623203,0,1.853086127,0
2004/2/7 1:15,0.01422773,0,2.088630764,0
2004/2/7 1:30,0.018547847,0,2.722824013,0
2004/2/7 1:45,0.01538017,0,2.257808956,0
2004/2/7 2:00,0.01634871,0,2.399990628,0
2004/2/7 2:15,0.015093592,0,2.215739379,0
2004/2/7 2:30,0.016423802,0,2.411014207,0
2004/2/7 2:45,0.01672877,0,2.455783436,0
2004/2/7 3:00,0.016169407,0,2.373669021,0
2004/2/7 3:15,0.016567858,0,2.432161481,0
2004/2/7 3:30,0.01758697,0,2.581767196,0
2004/2/7 3:45,0,0,0,0
2004/2/7 4:00,0,0,0,0
2004/2/7 4:15,0,0,0,0
2004/2/7 4:30,0,0,0,0
2004/2/7 4:45,0,0,0,0
2004/2/7 5:00,0,0,0,0
2004/2/7 5:15,0,0,0,0
2004/2/7 5:30,0,0,0,0
2004/2/7 5:45,0,0,0,0
2004/2/7 6:00,0,0,0,0
2004/2/7 6:15,0,0,0,0
2004/2/7 6:30,0,0,0,0
2004/2/7 6:45,0,0,0,0
2004/2/7 7:00,0,0,0,0
2004/2/7 7:15,0,0,0,0
2004/2/7 7:30,0,0,0,0
2004/2/7 7:45,0,0,0,0
2004/2/7 8:00,0,0,0,0
2004/2/7 8:15,0,0,0,0
2004/2/7 8:30,0,0,0,0
2004/2/7 8:45,0,0,0,0
2004/2/7 9:00,0,0,0,0
2004/2/7 9:15,0,0,0,0
2004/2/7 9:30,0,0,0,0
2004/2/7 9:45,0,0,0,0
2004/2/7 10:00,0,0,0,0
2004/2/7 10:15,0,0,0,0
2004/2/7 10:30,0.005844955,0,0.858039394,0
2004/2/7 10:45,0.026644045,0,3.911345806,0
2004/2/7 11:00,0.026636382,0,3.91022095,0
2004/2/7 11:15,0.02663485,0,3.909995978,0
2004/2/7 11:30,0.026633318,0,3.909771011,0
2004/2/7 11:45,0.024659457,0,3.620008361,0
2004/2/7 12:00,0.021603652,0,3.171416187,0
2004/2/7 12:15,0.019338617,0,2.838909049,0
2004/2/7 12:30,0.016442192,0,2.413713859,0
2004/2/7 12:45,0.013159577,0,1.931825977,0
2004/2/7 13:00,0.015622305,0,2.293354374,0
2004/2/7 13:15,0.013672965,0,2.007191262,0
2004/2/7 13:30,0.013413972,0,1.969171163,0
2004/2/7 13:45,0.01090527,0,1.600893636,0
2004/2/7 14:00,0.010189592,0,1.495832179,0
2004/2/7 14:15,0.00923791,0,1.356125188,0
2004/2/7 14:30,0.00934825,0,1.3723231,0